TimeCST,TemperatureF,Dew PointF,Humidity,Sea Level PressureIn,VisibilityMPH,Wind Direction,Wind SpeedMPH,Gust SpeedMPH,PrecipitationIn,Events,Conditions,WindDirDegrees,DateUTC
12:00 AM,71,63,68,29.80,12,ENE,5.8,,,,Scattered Clouds,70,2013-11-13 06:00:00
12:00 AM,71.6,62.6,73,29.95,6.2,ENE,5.8,-,N/A,,Mostly Cloudy,70,2013-11-13 06:00:00
1:00 AM,69.8,62.6,78,29.93,6.2,East,5.8,-,N/A,,Mostly Cloudy,80,2013-11-13 07:00:00
2:00 AM,69.8,62.6,78,29.90,6.2,ENE,8.1,-,N/A,,Scattered Clouds,60,2013-11-13 08:00:00
3:00 AM,70,62,70,29.75,12,NE,3.5,,,,Scattered Clouds,40,2013-11-13 09:00:00
3:00 AM,69.8,62.6,78,29.90,6.2,NE,3.5,-,N/A,,Scattered Clouds,40,2013-11-13 09:00:00
4:00 AM,71.6,62.6,73,29.91,6.2,ENE,5.8,-,N/A,,Scattered Clouds,70,2013-11-13 10:00:00
5:00 AM,71.6,62.6,73,29.91,6.2,East,6.9,-,N/A,,Scattered Clouds,100,2013-11-13 11:00:00
6:00 AM,69.8,62.6,78,29.94,6.2,ENE,3.5,-,N/A,,Scattered Clouds,60,2013-11-13 12:00:00
7:00 AM,75.2,62.6,65,29.94,6.2,East,6.9,18.4,N/A,,Mostly Cloudy,100,2013-11-13 13:00:00
8:00 AM,77.0,62.6,61,29.96,6.2,ESE,20.7,-,N/A,,Scattered Clouds,120,2013-11-13 14:00:00
9:00 AM,80,61,42,29.82,12,ESE,20.7,,,,Scattered Clouds,110,2013-11-13 15:00:00
9:00 AM,80.6,60.8,51,29.98,6.2,ESE,20.7,-,N/A,,Scattered Clouds,110,2013-11-13 15:00:00
10:00 AM,78.8,62.6,57,29.98,6.2,East,16.1,-,N/A,,Scattered Clouds,90,2013-11-13 16:00:00
11:00 AM,82.4,62.6,51,29.95,6.2,East,16.1,-,N/A,,Scattered Clouds,100,2013-11-13 17:00:00
12:00 PM,84,62,38,29.75,12,SE,15.0,,,,Scattered Clouds,130,2013-11-13 18:00:00
12:00 PM,84.2,62.6,48,29.92,6.2,SE,15.0,-,N/A,,Scattered Clouds,130,2013-11-13 18:00:00
1:00 PM,82.4,62.6,51,29.88,6.2,ENE,8.1,-,N/A,,Mostly Cloudy,70,2013-11-13 19:00:00
1:30 PM,80.6,64.4,58,29.87,6.2,WSW,6.9,-,N/A,,Mostly Cloudy,240,2013-11-13 19:30:00
1:49 PM,77.0,64.4,65,29.87,4.3,West,15.0,-,N/A,Rain,Rain,270,2013-11-13 19:49:00
2:00 PM,77.0,64.4,65,29.89,3.1,West,15.0,-,N/A,Rain,Rain,270,2013-11-13 20:00:00
2:28 PM,73.4,64.4,73,-9999,6.2,South,4.6,-,N/A,,Mostly Cloudy,180,2013-11-13 20:28:00
3:00 PM,73,63,64,29.76,12,East,8.1,,,,Overcast,100,2013-11-13 21:00:00
3:00 PM,73.4,62.6,69,29.89,6.2,East,8.1,-,N/A,,Mostly Cloudy,100,2013-11-13 21:00:00
4:00 PM,73.4,62.6,69,29.89,-9999.0,SE,6.9,-,N/A,,Clear,130,2013-11-13 22:00:00
5:00 PM,71.6,60.8,69,29.89,-9999.0,ENE,4.6,-,N/A,,Clear,60,2013-11-13 23:00:00
6:00 PM,68,68,98,29.81,9,WSW,4.6,,,Fog,Shallow Fog,250,2013-11-14 00:00:00
6:00 PM,68.0,68.0,100,29.93,6.2,WSW,4.6,-,N/A,Fog,Mostly Cloudy,250,2013-11-14 00:00:00
7:00 PM,68.0,68.0,100,29.95,-9999.0,Calm,Calm,-,N/A,,Clear,0,2013-11-14 01:00:00
8:00 PM,68.0,66.2,94,29.97,-9999.0,NE,4.6,-,N/A,,Clear,50,2013-11-14 02:00:00
9:00 PM,68,66,90,29.85,12,South,4.6,,,,Partly Cloudy,170,2013-11-14 03:00:00
9:00 PM,68.0,66.2,94,29.99,-9999.0,South,4.6,-,N/A,,Clear,170,2013-11-14 03:00:00
10:00 PM,68.0,62.6,83,30.00,-9999.0,NE,2.3,-,N/A,,Clear,40,2013-11-14 04:00:00
11:00 PM,66.2,62.6,88,29.98,-9999.0,East,3.5,-,N/A,,Clear,80,2013-11-14 05:00:00